Location: Paralde Spring
(38.5794°N, 119.0140°W)
Time: 18:02:31
(UTC+00:00)

Cosmos 1707 Rocket - Pass Details

Date: 18 September 2020
Orbit: 606 x 630 km, 82.5° (Epoch: 19 October)

Event Time Altitude Azimuth Distance (km) Brightness Sun altitude
Rises 12:46:50 0° 199° (SSW) 2,847 6.7 -11.3°
Reaches altitude 10° 12:49:06 10° 206° (SSW) 1,948 5.8 -10.9°
Maximum altitude 12:53:15 47° 280° (W) 804 3.8 -10.1°
Drops below altitude 10° 12:57:28 10° 355° (N) 1,966 6.2 -9.2°
Sets 12:59:46 0° 1° (N) 2,876 7.1 -8.8°
